Time,TemperatureF,DewpointF,PressureIn,WindDirection,WindDirectionDegrees,WindSpeedMPH,WindSpeedGustMPH,Humidity,HourlyPrecipIn,Conditions,Clouds,dailyrainin,SolarRadiationWatts/m^2,SoftwareType,DateUTC
2013-12-14 00:01:00,21.1,17.0,30.11,NE,42,13.0,18.0,85,0.00,,,0.00,0,weatherlink.com 1.10,2013-12-14 06:01:00,
2013-12-14 00:16:00,21.3,18.0,30.10,NE,46,12.0,21.0,85,0.00,,,0.00,0,weatherlink.com 1.10,2013-12-14 06:16:00,
2013-12-14 00:31:00,21.5,18.0,30.09,NE,51,12.0,19.0,85,0.00,,,0.00,0,weatherlink.com 1.10,2013-12-14 06:31:00,
2013-12-14 00:46:00,21.5,17.0,30.09,NE,40,12.0,22.0,84,0.00,,,0.00,0,weatherlink.com 1.10,2013-12-14 06:46:00,
2013-12-14 01:01:00,21.1,17.0,30.09,NE,46,16.0,19.0,85,0.00,,,0.00,0,weatherlink.com 1.10,2013-12-14 07:01:00,
2013-12-14 01:16:00,21.0,18.0,30.08,NE,48,11.0,18.0,86,0.00,,,0.00,0,weatherlink.com 1.10,2013-12-14 07:16:00,
2013-12-14 01:31:00,21.0,18.0,30.08,NE,49,12.0,17.0,87,0.00,,,0.00,0,weatherlink.com 1.10,2013-12-14 07:31:00,
2013-12-14 01:46:00,21.2,18.0,30.08,NE,48,14.0,20.0,87,0.00,,,0.00,0,weatherlink.com 1.10,2013-12-14 07:46:00,
2013-12-14 02:01:00,21.1,18.0,30.08,NE,44,17.0,20.0,87,0.00,,,0.00,0,weatherlink.com 1.10,2013-12-14 08:01:00,
2013-12-14 02:16:00,21.0,18.0,30.07,NE,38,15.0,19.0,87,0.00,,,0.00,0,weatherlink.com 1.10,2013-12-14 08:16:00,
2013-12-14 02:31:00,20.8,18.0,30.07,NNE,33,13.0,20.0,87,0.00,,,0.00,0,weatherlink.com 1.10,2013-12-14 08:31:00,
2013-12-14 02:46:00,20.7,17.0,30.06,NE,38,13.0,21.0,87,0.00,,,0.00,0,weatherlink.com 1.10,2013-12-14 08:46:00,
2013-12-14 03:01:00,20.8,18.0,30.06,NE,35,17.0,19.0,87,0.00,,,0.00,0,weatherlink.com 1.10,2013-12-14 09:01:00,
2013-12-14 03:16:00,20.9,18.0,30.05,NE,36,17.0,18.0,88,0.00,,,0.00,0,weatherlink.com 1.10,2013-12-14 09:16:00,
2013-12-14 03:31:00,20.7,18.0,30.05,NE,34,16.0,19.0,88,0.00,,,0.00,0,weatherlink.com 1.10,2013-12-14 09:31:00,
2013-12-14 03:46:00,20.7,18.0,30.05,NE,41,12.0,21.0,88,0.00,,,0.00,0,weatherlink.com 1.10,2013-12-14 09:46:00,
2013-12-14 04:01:00,20.7,18.0,30.05,NE,39,15.0,20.0,88,0.00,,,0.00,0,weatherlink.com 1.10,2013-12-14 10:01:00,
2013-12-14 04:16:00,20.9,18.0,30.04,NE,45,12.0,20.0,88,0.00,,,0.00,0,weatherlink.com 1.10,2013-12-14 10:16:00,
2013-12-14 04:31:00,21.2,18.0,30.03,NE,43,15.0,20.0,88,0.00,,,0.00,0,weatherlink.com 1.10,2013-12-14 10:31:00,
2013-12-14 04:46:00,21.4,18.0,30.03,NE,44,13.0,19.0,88,0.00,,,0.00,0,weatherlink.com 1.10,2013-12-14 10:46:00,
2013-12-14 05:01:00,21.6,19.0,30.03,NE,38,13.0,18.0,88,0.00,,,0.00,0,weatherlink.com 1.10,2013-12-14 11:01:00,
2013-12-14 05:16:00,21.8,19.0,30.04,NE,46,12.0,17.0,88,0.00,,,0.00,0,weatherlink.com 1.10,2013-12-14 11:16:00,
2013-12-14 05:31:00,21.9,19.0,30.04,NE,38,12.0,17.0,88,0.00,,,0.00,0,weatherlink.com 1.10,2013-12-14 11:31:00,
2013-12-14 05:46:00,21.7,19.0,30.04,NE,46,16.0,20.0,88,0.00,,,0.00,0,weatherlink.com 1.10,2013-12-14 11:46:00,
2013-12-14 06:01:00,21.5,19.0,30.03,NE,51,15.0,22.0,88,0.00,,,0.00,0,weatherlink.com 1.10,2013-12-14 12:01:00,
2013-12-14 06:16:00,21.3,18.0,30.03,NE,34,17.0,22.0,88,0.00,,,0.00,0,weatherlink.com 1.10,2013-12-14 12:16:00,
2013-12-14 06:32:00,21.4,18.0,30.03,NE,34,18.0,21.0,88,0.00,,,0.00,0,weatherlink.com 1.10,2013-12-14 12:32:00,
2013-12-14 06:47:00,21.4,18.0,30.03,NE,40,19.0,22.0,88,0.00,,,0.00,0,weatherlink.com 1.10,2013-12-14 12:47:00,
2013-12-14 07:02:00,21.5,18.0,30.04,NE,44,13.0,20.0,87,0.00,,,0.00,0,weatherlink.com 1.10,2013-12-14 13:02:00,
2013-12-14 07:17:00,21.4,18.0,30.04,NNE,28,10.0,17.0,87,0.00,,,0.00,0,weatherlink.com 1.10,2013-12-14 13:17:00,
2013-12-14 07:32:00,21.4,18.0,30.05,NE,44,10.0,16.0,87,0.00,,,0.00,7,weatherlink.com 1.10,2013-12-14 13:32:00,
2013-12-14 07:47:00,21.6,18.0,30.04,NE,40,13.0,18.0,87,0.00,,,0.00,28,weatherlink.com 1.10,2013-12-14 13:47:00,
2013-12-14 08:02:00,21.9,19.0,30.04,NNE,19,14.0,16.0,87,0.00,,,0.00,26,weatherlink.com 1.10,2013-12-14 14:02:00,
2013-12-14 08:17:00,21.9,19.0,30.04,NE,38,15.0,20.0,87,0.00,,,0.00,25,weatherlink.com 1.10,2013-12-14 14:17:00,
2013-12-14 08:32:00,21.9,19.0,30.03,NNE,32,15.0,18.0,88,0.00,,,0.00,35,weatherlink.com 1.10,2013-12-14 14:32:00,
2013-12-14 08:47:00,22.0,19.0,30.04,NNE,26,11.0,19.0,88,0.00,,,0.00,65,weatherlink.com 1.10,2013-12-14 14:47:00,
2013-12-14 09:02:00,22.0,19.0,30.04,North,5,6.0,18.0,88,0.00,,,0.00,98,weatherlink.com 1.10,2013-12-14 15:02:00,
2013-12-14 09:17:00,22.0,19.0,30.04,North,355,10.0,15.0,88,0.00,,,0.00,123,weatherlink.com 1.10,2013-12-14 15:17:00,
2013-12-14 09:32:00,22.2,19.0,30.04,NNE,24,12.0,18.0,88,0.00,,,0.00,163,weatherlink.com 1.10,2013-12-14 15:32:00,
2013-12-14 09:47:00,22.3,19.0,30.04,NNE,21,14.0,17.0,87,0.00,,,0.00,153,weatherlink.com 1.10,2013-12-14 15:47:00,
2013-12-14 10:02:00,22.5,19.0,30.04,NNE,19,13.0,16.0,87,0.00,,,0.00,171,weatherlink.com 1.10,2013-12-14 16:02:00,
2013-12-14 10:17:00,22.6,19.0,30.04,NNE,32,17.0,18.0,86,0.00,,,0.00,169,weatherlink.com 1.10,2013-12-14 16:17:00,
2013-12-14 10:32:00,22.5,19.0,30.04,NNE,24,14.0,18.0,86,0.00,,,0.00,156,weatherlink.com 1.10,2013-12-14 16:32:00,
2013-12-14 10:47:00,22.5,19.0,30.03,NNE,24,13.0,18.0,86,0.00,,,0.00,155,weatherlink.com 1.10,2013-12-14 16:47:00,
2013-12-14 11:02:00,22.6,19.0,30.03,North,11,11.0,18.0,86,0.00,,,0.00,174,weatherlink.com 1.10,2013-12-14 17:02:00,
2013-12-14 11:17:00,22.9,19.0,30.03,NE,45,11.0,18.0,85,0.00,,,0.00,346,weatherlink.com 1.10,2013-12-14 17:17:00,
2013-12-14 11:32:00,23.4,20.0,30.02,NE,39,14.0,16.0,85,0.00,,,0.00,294,weatherlink.com 1.10,2013-12-14 17:32:00,
2013-12-14 11:47:00,23.5,20.0,30.01,NNE,28,9.0,16.0,85,0.00,,,0.00,248,weatherlink.com 1.10,2013-12-14 17:47:00,
2013-12-14 12:02:00,23.5,20.0,30.00,NNE,18,10.0,15.0,85,0.00,,,0.00,220,weatherlink.com 1.10,2013-12-14 18:02:00,
2013-12-14 12:17:00,23.6,20.0,29.99,North,5,12.0,14.0,84,0.00,,,0.00,232,weatherlink.com 1.10,2013-12-14 18:17:00,
2013-12-14 12:32:00,23.8,20.0,29.99,NNE,16,9.0,13.0,85,0.00,,,0.00,232,weatherlink.com 1.10,2013-12-14 18:32:00,
2013-12-14 12:47:00,23.8,20.0,29.99,North,355,3.0,13.0,85,0.00,,,0.00,227,weatherlink.com 1.10,2013-12-14 18:47:00,
2013-12-14 13:02:00,23.4,20.0,29.98,North,5,7.0,11.0,85,0.00,,,0.00,232,weatherlink.com 1.10,2013-12-14 19:02:00,
2013-12-14 13:17:00,23.5,19.0,29.98,NNE,13,12.0,14.0,84,0.00,,,0.00,239,weatherlink.com 1.10,2013-12-14 19:17:00,
2013-12-14 13:32:00,23.5,19.0,29.98,North,355,4.0,10.0,84,0.00,,,0.00,211,weatherlink.com 1.10,2013-12-14 19:32:00,
2013-12-14 13:47:00,23.4,19.0,29.98,North,355,4.0,13.0,84,0.00,,,0.00,262,weatherlink.com 1.10,2013-12-14 19:47:00,
2013-12-14 14:02:00,24.0,19.0,29.98,North,11,8.0,12.0,82,0.00,,,0.00,251,weatherlink.com 1.10,2013-12-14 20:02:00,
2013-12-14 14:17:00,24.0,19.0,29.99,NNW,337,8.0,13.0,81,0.00,,,0.00,193,weatherlink.com 1.10,2013-12-14 20:17:00,
2013-12-14 14:32:00,23.6,19.0,29.98,NNW,334,4.0,11.0,82,0.00,,,0.00,149,weatherlink.com 1.10,2013-12-14 20:32:00,
2013-12-14 14:47:00,23.7,19.0,29.98,North,351,4.0,8.0,81,0.00,,,0.00,192,weatherlink.com 1.10,2013-12-14 20:47:00,
2013-12-14 15:02:00,23.4,18.0,29.98,NNW,332,3.0,8.0,80,0.00,,,0.00,153,weatherlink.com 1.10,2013-12-14 21:02:00,
2013-12-14 15:17:00,22.8,18.0,29.98,NNW,333,1.0,9.0,81,0.00,,,0.00,125,weatherlink.com 1.10,2013-12-14 21:17:00,
2013-12-14 15:32:00,22.6,18.0,29.99,NNW,336,5.0,8.0,81,0.00,,,0.00,130,weatherlink.com 1.10,2013-12-14 21:32:00,
2013-12-14 15:47:00,22.5,17.0,30.00,NNW,331,3.0,8.0,80,0.00,,,0.00,86,weatherlink.com 1.10,2013-12-14 21:47:00,
2013-12-14 16:02:00,21.9,17.0,29.99,NNW,331,3.0,6.0,80,0.00,,,0.00,30,weatherlink.com 1.10,2013-12-14 22:02:00,
2013-12-14 16:17:00,20.3,15.0,29.99,NNW,332,4.0,8.0,81,0.00,,,0.00,12,weatherlink.com 1.10,2013-12-14 22:17:00,
2013-12-14 16:32:00,18.1,14.0,29.99,NNW,332,6.0,8.0,83,0.00,,,0.00,0,weatherlink.com 1.10,2013-12-14 22:32:00,
2013-12-14 16:47:00,17.8,14.0,30.00,NNW,333,6.0,7.0,83,0.00,,,0.00,0,weatherlink.com 1.10,2013-12-14 22:47:00,
2013-12-14 17:03:00,16.6,13.0,30.00,NNW,330,4.0,6.0,84,0.00,,,0.00,0,weatherlink.com 1.10,2013-12-14 23:03:00,
2013-12-14 17:18:00,16.2,13.0,30.00,NW,319,7.0,8.0,85,0.00,,,0.00,0,weatherlink.com 1.10,2013-12-14 23:18:00,
2013-12-14 17:33:00,16.4,13.0,30.00,NW,313,5.0,7.0,85,0.00,,,0.00,0,weatherlink.com 1.10,2013-12-14 23:33:00,
2013-12-14 17:48:00,15.9,13.0,30.01,NW,313,8.0,8.0,86,0.00,,,0.00,0,weatherlink.com 1.10,2013-12-14 23:48:00,
2013-12-14 18:03:00,16.4,13.0,30.01,NW,311,7.0,9.0,87,0.00,,,0.00,0,weatherlink.com 1.10,2013-12-15 00:03:00,
2013-12-14 18:18:00,17.8,14.0,30.01,NW,313,4.0,7.0,86,0.00,,,0.00,0,weatherlink.com 1.10,2013-12-15 00:18:00,
2013-12-14 18:33:00,18.4,15.0,30.00,NW,313,2.0,5.0,86,0.00,,,0.00,0,weatherlink.com 1.10,2013-12-15 00:33:00,
2013-12-14 18:48:00,18.8,15.0,30.01,NW,313,4.0,6.0,86,0.00,,,0.00,0,weatherlink.com 1.10,2013-12-15 00:48:00,
2013-12-14 19:03:00,19.3,16.0,30.00,NW,313,6.0,8.0,85,0.00,,,0.00,0,weatherlink.com 1.10,2013-12-15 01:03:00,
2013-12-14 19:18:00,19.7,16.0,30.01,NW,310,7.0,8.0,85,0.00,,,0.00,0,weatherlink.com 1.10,2013-12-15 01:18:00,
2013-12-14 19:33:00,20.1,16.0,30.01,NW,309,6.0,9.0,84,0.00,,,0.00,0,weatherlink.com 1.10,2013-12-15 01:33:00,
2013-12-14 19:48:00,20.2,16.0,30.01,NW,304,7.0,8.0,84,0.00,,,0.00,0,weatherlink.com 1.10,2013-12-15 01:48:00,
2013-12-14 20:03:00,20.2,16.0,30.01,WNW,297,8.0,9.0,84,0.00,,,0.00,0,weatherlink.com 1.10,2013-12-15 02:03:00,
2013-12-14 20:18:00,20.3,16.0,30.00,WNW,293,8.0,8.0,84,0.00,,,0.00,0,weatherlink.com 1.10,2013-12-15 02:18:00,
2013-12-14 20:33:00,20.7,17.0,30.00,WNW,291,9.0,11.0,84,0.00,,,0.00,0,weatherlink.com 1.10,2013-12-15 02:33:00,
2013-12-14 20:48:00,20.9,17.0,30.00,WNW,288,9.0,11.0,84,0.00,,,0.00,0,weatherlink.com 1.10,2013-12-15 02:48:00,
2013-12-14 21:03:00,20.9,17.0,29.99,WNW,286,7.0,8.0,83,0.00,,,0.00,0,weatherlink.com 1.10,2013-12-15 03:03:00,
2013-12-14 21:18:00,20.9,17.0,29.99,WNW,285,5.0,8.0,84,0.00,,,0.00,0,weatherlink.com 1.10,2013-12-15 03:18:00,
2013-12-14 21:33:00,20.9,17.0,29.99,WNW,286,11.0,13.0,83,0.00,,,0.00,0,weatherlink.com 1.10,2013-12-15 03:33:00,
2013-12-14 21:48:00,20.6,16.0,29.99,WNW,292,9.0,15.0,82,0.00,,,0.00,0,weatherlink.com 1.10,2013-12-15 03:48:00,
2013-12-14 22:03:00,20.5,16.0,29.98,WNW,288,14.0,17.0,81,0.00,,,0.00,0,weatherlink.com 1.10,2013-12-15 04:03:00,
2013-12-14 22:18:00,20.0,15.0,29.98,WNW,292,12.0,16.0,81,0.00,,,0.00,0,weatherlink.com 1.10,2013-12-15 04:18:00,
2013-12-14 22:33:00,19.6,14.0,29.98,WNW,290,14.0,17.0,80,0.00,,,0.00,0,weatherlink.com 1.10,2013-12-15 04:33:00,
2013-12-14 22:48:00,19.1,14.0,29.98,WNW,288,9.0,15.0,79,0.00,,,0.00,0,weatherlink.com 1.10,2013-12-15 04:48:00,
2013-12-14 23:03:00,18.7,13.0,29.97,WNW,298,13.0,19.0,77,0.00,,,0.00,0,weatherlink.com 1.10,2013-12-15 05:03:00,
2013-12-14 23:18:00,18.6,13.0,29.97,WNW,291,4.0,14.0,78,0.00,,,0.00,0,weatherlink.com 1.10,2013-12-15 05:18:00,
2013-12-14 23:33:00,18.3,13.0,29.97,WSW,256,6.0,14.0,79,0.00,,,0.00,0,weatherlink.com 1.10,2013-12-15 05:33:00,
2013-12-14 23:48:00,17.7,12.0,29.97,West,268,6.0,14.0,79,0.00,,,0.00,0,weatherlink.com 1.10,2013-12-15 05:48:00,